Weather History for Trinidad, CO

Change the Weather History Date:

Friday, October 19, 2012

  Actual Average Record
Temperature  
Mean Temperature 57 °F 52 °F  
Max Temperature 78 °F 67 °F 87 °F (2003)
Min Temperature 35 °F 36 °F 17 °F (1976)
Degree Days  
Heating Degree Days 8 14  
Month to date heating degree days 216 203  
Since 1 July heating degree days 292 313  
Cooling Degree Days 0 0  
Month to date cooling degree days 0 0  
Year to date cooling degree days 1175 716  
Growing Degree Days 5 (Base 50)    
Moisture  
Dew Point 16 °F    
Average Humidity 27    
Maximum Humidity 44    
Minimum Humidity 9    
Precipitation  
Precipitation 0.00 in 0.04 in 0.94 in (1999)
Month to date precipitation 0.05 0.52  
Year to date precipitation 12.22  
Sea Level Pressure  
Sea Level Pressure 29.88 in    
Wind  
Wind Speed 9 mph (SW)    
Max Wind Speed 17 mph    
Max Gust Speed 22 mph    
Visibility 10 miles    
Events      
T = Trace of Precipitation, MM = Missing Value Source: NWS Daily Summary

Daily Weather History Graph

Daily Weather History Graph

Search for Another Location

Airport:

Trip Planner

Search our weather history database for the weather conditions in past years. The results will help you decide how hot, cold, wet, or windy it might be!

Date:

Astronomy

Oct. 19, 2012 Rise Set
Actual Time 7:09 AM MDT 6:14 PM MDT
Civil Twilight 6:43 AM MDT 6:40 PM MDT
Nautical Twilight 6:12 AM MDT 7:10 PM MDT
Astronomical Twilight 5:42 AM MDT 7:41 PM MDT
Moon 11:50 AM MDT (10/19) 9:59 PM MDT (10/19)
Length of Visible Light 11h 57m
Length of Day
11h 04m
Waxing Crescent, 24% of the Moon is Illuminated
Oct 19
Waxing Crescent
Oct 21
First Quarter
Oct 29
Full
Nov 6
Last Quarter
Nov 13
New

Hourly Weather History & Observations

Time (MDT) Temp. Windchill Dew Point Humidity Pressure Visibility Wind Dir Wind Speed Gust Speed Precip Events Conditions
12:54 AM 41.0 °F 32.5 °F 14.0 °F 33% 30.04 in 10.0 mi WSW 17.3 mph - N/A   Clear
1:54 AM 39.0 °F 31.0 °F 14.0 °F 36% 30.02 in 10.0 mi WSW 13.8 mph - N/A   Clear
2:54 AM 41.0 °F 33.9 °F 14.0 °F 33% 29.99 in 10.0 mi WSW 12.7 mph - N/A   Clear
3:54 AM 37.9 °F 30.5 °F 15.1 °F 39% 29.99 in 10.0 mi West 11.5 mph - N/A   Clear
4:54 AM 35.1 °F - 15.1 °F 44% 30.00 in 10.0 mi Calm Calm - N/A   Clear
5:54 AM 37.9 °F 32.1 °F 16.0 °F 41% 30.01 in 10.0 mi West 8.1 mph - N/A   Clear
6:54 AM 39.0 °F 32.3 °F 16.0 °F 39% 30.03 in 10.0 mi West 10.4 mph - N/A   Clear
7:54 AM 44.1 °F 38.6 °F 17.1 °F 34% 30.02 in 10.0 mi WSW 10.4 mph - N/A   Clear
8:54 AM 51.1 °F - 18.0 °F 27% 30.01 in 10.0 mi WSW 11.5 mph - N/A   Clear
9:54 AM 60.1 °F - 17.1 °F 19% 30.01 in 10.0 mi Calm Calm - N/A   Clear
10:54 AM 64.9 °F - 16.0 °F 15% 29.96 in 10.0 mi SE 8.1 mph - N/A   Clear
11:54 AM 69.1 °F - 14.0 °F 12% 29.91 in 10.0 mi ESE 5.8 mph - N/A   Clear
12:54 PM 73.0 °F - 14.0 °F 11% 29.84 in 10.0 mi East 10.4 mph - N/A   Clear
1:54 PM 75.0 °F - 15.1 °F 10% 29.80 in 10.0 mi ESE 9.2 mph 16.1 mph N/A   Clear
2:54 PM 75.9 °F - 14.0 °F 10% 29.75 in 10.0 mi ESE 6.9 mph - N/A   Clear
3:54 PM 75.0 °F - 12.9 °F 9% 29.75 in 10.0 mi ESE 3.5 mph - N/A   Clear
4:54 PM 75.9 °F - 14.0 °F 10% 29.74 in 10.0 mi East 5.8 mph - N/A   Clear
5:54 PM 72.0 °F - 14.0 °F 11% 29.76 in 10.0 mi Calm Calm - N/A   Clear
6:54 PM 61.0 °F - 17.1 °F 18% 29.79 in 10.0 mi WSW 8.1 mph - N/A   Clear
7:54 PM 57.0 °F - 18.0 °F 22% 29.79 in 10.0 mi WSW 13.8 mph - N/A   Clear
8:54 PM 55.0 °F - 19.0 °F 24% 29.77 in 10.0 mi WSW 10.4 mph - N/A   Clear
9:54 PM 57.9 °F - 18.0 °F 21% 29.74 in 10.0 mi WSW 13.8 mph - N/A   Clear
10:54 PM 53.1 °F - 18.0 °F 25% 29.75 in 10.0 mi NW 9.2 mph - N/A   Clear
11:54 PM 51.1 °F - 15.1 °F 24% 29.75 in 10.0 mi West 12.7 mph - N/A   Clear